Location: Clarion
(42.7316°N, 93.7330°W)
Time: 08:52:37
(UTC+00:00)

Cosmos 1842 Rocket - Pass Details

Date: 22 April 2026
Orbit: 600 x 625 km, 82.5° (Epoch: 17 May)

Event Time Altitude Azimuth Distance (km) Brightness Sun altitude
Exits shadow 10:14:12 17° 223° (SW) 1,534 5.0 -12.3°
Maximum altitude 10:17:04 37° 283° (WNW) 934 4.1 -11.8°
Drops below altitude 10° 10:21:06 10° 352° (N) 1,956 6.4 -11.2°
Sets 10:23:27 0° 1° (N) 2,867 7.4 -10.8°
